DW8785 Weather Reports


time (UTC)temp
C
wind
direction
speed
KPH
gust
KPH
rain 1hr
cm
rain 24hr
cm
rain mn
cm
humidity
%
barometer
mb
20260906103009 25 103 6.4 0.0 0.00 0.00 0.00 60 1017.3
20260906101505 24 45 6.4 0.0 0.00 0.00 0.00 63 1017.4
20260906100101 24 54 6.4 0.0 0.00 0.00 0.00 63 1017.3
20260906094558 24 37 8.0 0.0 0.00 0.00 0.00 65 1017.4
20260906093051 24 51 6.4 0.0 0.00 0.00 0.00 63 1017.3
20260906091548 24 45 8.0 0.0 0.00 0.00 0.00 66 1017.2
20260906090043 23 75 6.4 0.0 0.00 0.00 0.00 67 1017.2
20260906084538 23 65 4.8 0.0 0.00 0.00 0.00 68 1017.1
20260906083034 23 38 6.4 0.0 0.00 0.00 0.00 64 1017.1
20260906081541 22 44 8.0 0.0 0.00 0.00 0.00 73 1017.2
20260906080024 22 48 6.4 0.0 0.00 0.00 0.00 78 1017.3
20260906074522 22 48 6.4 0.0 0.00 0.00 0.00 83 1017.2
20260906073016 21 47 3.2 0.0 0.00 0.00 0.00 85 1016.8
20260906071511 21 72 4.8 0.0 0.00 0.00 0.00 93 1016.6
20260906070007 21 56 6.4 0.0 0.00 0.00 0.00 93 1016.6
20260906064505 21 64 4.8 0.0 0.00 0.00 0.00 96 1016.7
20260906063059 21 51 0.0 0.0 0.00 0.00 0.00 97 1016.6
20260906061559 20 58 0.0 0.0 0.00 0.00 0.00 98 1016.5
20260906060049 20 32 0.0 0.0 0.00 0.00 0.00 98 1016.4
20260906054545 20 35 0.0 0.0 0.00 0.00 0.00 97 1016.3
20260906053041 20 38 0.0 0.0 0.00 0.00 0.00 97 1016.3
20260906051543 20 32 0.0 0.0 0.00 0.00 0.00 94 1015.8
20260906050043 20 332 0.0 0.0 0.00 0.00 0.00 88 1015.8
20260906044535 20 347 6.4 0.0 0.00 0.00 0.00 85 1015.8
20260906043024 20 7 6.4 0.0 0.00 0.00 0.00 81 1015.7
20260906041520 20 333 6.4 0.0 0.00 0.00 0.00 69 1015.3
20260906040023 21 339 0.0 0.0 0.00 0.00 0.00 62 1015.2
20260906034515 21 333 0.0 0.0 0.00 0.00 0.00 61 1014.9
20260906033017 22 340 0.0 0.0 0.00 0.00 0.00 60 1014.8
20260906031502 22 340 0.0 0.0 0.00 0.00 0.00 60 1014.7
20260906030058 22 342 0.0 0.0 0.00 0.00 0.00 58 1014.8
20260906024553 22 357 1.6 0.0 0.00 0.00 0.00 56 1014.5
20260906023052 22 333 6.4 0.0 0.00 0.00 0.00 55 1014.5
20260906021548 22 344 4.8 0.0 0.00 0.00 0.00 54 1014.3
20260906020040 22 320 6.4 0.0 0.00 0.00 0.00 54 1014.3
20260906014538 23 350 9.7 0.0 0.00 0.00 0.00 53 1014.3
20260906013033 23 333 4.8 0.0 0.00 0.00 0.00 53 1014.2
20260906011535 23 322 0.0 0.0 0.00 0.00 0.00 51 1014.2
20260906010025 23 30 0.0 0.0 0.00 0.00 0.00 49 1014.2
20260906004520 23 31 0.0 0.0 0.00 0.00 0.00 50 1014.2
20260906003015 23 34 0.0 0.0 0.00 0.00 0.00 48 1014.2
20260906001511 23 37 0.0 0.0 0.00 0.00 0.00 46 1014.4
20260906000007 25 28 0.0 0.0 0.00 0.00 0.00 41 1014.0
20260905234501 25 357 0.0 0.0 0.00 0.00 0.00 41 1013.9
20260905233058 25 359 0.0 0.0 0.00 0.00 0.00 39 1014.0
20260905231554 25 359 0.0 0.0 0.00 0.00 0.00 40 1014.2
20260905230053 25 359 1.6 0.0 0.00 0.00 0.00 40 1014.1
20260905224600 25 359 3.2 0.0 0.00 0.00 0.00 40 1014.1
20260905223042 25 357 4.8 0.0 0.00 0.00 0.00 42 1014.2
20260905221547 23 357 3.2 0.0 0.00 0.00 0.00 49 1014.1
20260905220038 24 359 8.0 0.0 0.00 0.00 0.00 48 1013.9
20260905214527 24 359 11.3 0.0 0.00 0.00 0.00 44 1013.9
20260905213024 24 359 12.9 0.0 0.00 0.00 0.00 47 1014.0
20260905211520 24 350 14.5 0.0 0.00 0.00 0.00 50 1013.8
20260905210015 23 359 12.9 0.0 0.00 0.00 0.00 51 1013.9
20260905204517 23 189 12.9 0.0 0.00 0.00 0.00 53 1013.8
20260905203008 24 359 12.9 0.0 0.00 0.00 0.00 52 1013.8
20260905201507 23 359 14.5 0.0 0.00 0.00 0.00 55 1014.1
20260905194555 23 359 11.3 0.0 0.00 0.00 0.00 60 1013.9
20260905193052 23 357 12.9 0.0 0.00 0.00 0.00 58 1013.7
20260905191549 23 359 12.9 0.0 0.00 0.00 0.00 60 1013.6
20260905190038 23 359 12.9 0.0 0.00 0.00 0.00 61 1013.4
20260905184535 23 359 12.9 0.0 0.00 0.00 0.00 59 1013.3
20260905183033 24 357 16.1 0.0 0.00 0.00 0.00 58 1013.0
20260905181527 24 359 12.9 0.0 0.00 0.00 0.00 57 1013.2
20260905180019 24 359 14.5 0.0 0.00 0.00 0.00 56 1013.1
20260905174519 24 354 16.1 0.0 0.00 0.00 0.00 55 1012.7
20260905173017 25 357 17.7 0.0 0.00 0.00 0.00 56 1012.5
20260905171509 25 274 16.1 0.0 0.00 0.00 0.00 54 1012.4
20260905170003 26 359 14.5 0.0 0.00 0.00 0.00 53 1012.5
20260905164558 26 359 14.5 0.0 0.00 0.00 0.00 52 1012.6
20260905163054 26 359 17.7 0.0 0.00 0.00 0.00 49 1012.3
20260905161549 27 278 19.3 0.0 0.00 0.00 0.00 47 1012.1
20260905160111 27 356 17.7 0.0 0.00 0.00 0.00 45 1012.1
20260905154542 27 359 16.1 0.0 0.00 0.00 0.00 44 1012.2
20260905153036 27 357 24.1 0.0 0.00 0.00 0.00 44 1011.9
20260905151535 27 191 20.9 0.0 0.00 0.00 0.00 44 1012.0
20260905150026 27 192 22.5 0.0 0.00 0.00 0.00 44 1012.1
20260905144522 28 357 16.1 0.0 0.00 0.00 0.00 41 1012.1
20260905143018 28 356 17.7 0.0 0.00 0.00 0.00 41 1012.2
20260905141514 28 357 16.1 0.0 0.00 0.00 0.00 39 1012.0
20260905140009 28 359 22.5 0.0 0.00 0.00 0.00 39 1012.4
20260905134505 27 188 24.1 0.0 0.00 0.00 0.00 39 1012.4
20260905133100 27 359 27.4 0.0 0.00 0.00 0.00 40 1012.6
20260905131602 28 357 19.3 0.0 0.00 0.00 0.00 40 1012.6
20260905130051 27 188 20.9 0.0 0.00 0.00 0.00 39 1012.6
20260905124552 28 281 17.7 0.0 0.00 0.00 0.00 38 1012.7
20260905123043 28 356 19.3 0.0 0.00 0.00 0.00 38 1012.7
20260905121538 27 274 19.3 0.0 0.00 0.00 0.00 39 1012.8
20260905120033 27 357 22.5 0.0 0.00 0.00 0.00 38 1013.0
20260905114529 27 359 25.7 0.0 0.00 0.00 0.00 39 1013.1
20260905113024 27 188 24.1 0.0 0.00 0.00 0.00 39 1013.1
20260905111520 27 359 17.7 0.0 0.00 0.00 0.00 38 1013.1
20260905110014 27 298 16.1 0.0 0.00 0.00 0.00 38 1013.1
20260905104510 26 352 19.3 0.0 0.00 0.00 0.00 37 1013.0